Hourly Data Report for September 20, 2017

All times are specified in Local Standard Time (LST). Add 1 hour to adjust for Daylight Saving Time where and when it is observed.

KOUCHIBOUGUAC CS
NEW BRUNSWICK

46°47'00.000" N
65°01'00.000" W
21.00 m
8102328
71670
AKC

Download Data

Hourly Data (September 2017)
Hourly Data Report for September 20, 2017
Temp Definition
°C
Dew Point Temp Definition
°C
Rel Hum Definition
%
Wind Dir Definition
10's deg

Wind Spd Definition
km/h
Visibility Definition
km
Stn Press Definition
kPa
Hmdx Definition


Wind Chill Definition


Weather Definition


TIME
00:00 17.8 17.2 97 19 2   101.79     LegendNANA
01:00 16.9 16.5 97 30 1   101.77     LegendNANA
02:00 16.0 15.6 98 16 3   101.71     LegendNANA
03:00 15.5 15.2 98 13 1   101.69     LegendNANA
04:00 16.2 16.0 99   0   101.66     LegendNANA
05:00 16.7 16.5 99 0 1   101.68     LegendNANA
06:00 16.9 16.7 99   0   101.66     LegendNANA
07:00 17.3 17.0 98   0   101.67     LegendNANA
08:00 18.7 18.1 96   0   101.67     LegendNANA
09:00 20.3 18.6 90 22 1   101.65 27   LegendNANA
10:00 21.9 18.5 81 17 2   101.62 28   LegendNANA
11:00 23.8 18.3 71 22 1   101.53 30   LegendNANA
12:00 24.2 17.8 68 36 7   101.48 30   LegendNANA
13:00 25.2 18.7 67 36 6   101.40 32   LegendNANA
14:00 23.7 18.7 74 10 7   101.40 30   LegendNANA
15:00 23.9 18.1 70 5 9   101.36 30   LegendNANA
16:00 21.8 17.5 76 5 8   101.39 27   LegendNANA
17:00 19.0 16.2 84 6 9   101.45     LegendNANA
18:00 17.3 16.0 92 4 9   101.47     LegendNANA
19:00 16.3 15.7 97 2 9   101.49     LegendNANA
20:00 16.0 14.9 93 5 5   101.53     LegendNANA
21:00 15.5 14.3 92 4 3   101.58     LegendNANA
22:00 14.2 13.7 97 0 1   101.65     LegendNANA
23:00 13.1 12.6 97 35 2   101.69     LegendNANA

Notes on Data Quality.

Legend

  • E = Estimated
  • M = Missing
  • NA = Not Available
  • ‡ = Partner data that is not subject to review by the National Climate Archives
Date modified: